[[{"header":{"parameterUnit":"m.s-1","parameterCategory":1,"la1":30.2992,"la2":30.254,"lo1":-89.0895,"lo2":-89.0443,"dy":0.0025,"dx":0.0025,"nx":19,"ny":19,"refTime":"2026-04-01T03:00:00:Z","depth":0,"parameterNumber":2,"parameterNumberName":"U-component_of_WINDS"},"data":[0,0,0,-2.5362,-2.5363,-2.5405,-2.5405,-2.546,-2.5461,0,0,0,0,0,0,0,0,0,0,0,-2.535,-2.535,-2.5362,-2.5363,-2.5405,-2.5405,-2.546,-2.5461,0,0,0,0,0,0,0,0,0,0,0,-2.535,-2.535,-2.5351,-2.5363,-2.5405,-2.5405,-2.546,-2.5428,0,0,0,0,0,0,0,0,0,0,-2.5387,-2.5376,-2.535,-2.5351,-2.5363,-2.5404,-2.5405,-2.5426,-2.543,-2.5442,0,-2.5452,0,-2.5458,-2.5465,-2.5465,0,0,0,-2.5362,-2.5373,-2.5384,-2.5351,-2.5364,-2.5404,-2.5386,-2.5428,-2.5432,-2.5447,-2.5453,-2.5455,-2.5458,-2.5465,-2.5465,-2.5536,-2.5537,0,0,-2.536,-2.5358,-2.5381,-2.5387,-2.538,-2.5384,-2.5387,-2.5431,-2.5438,-2.5453,-2.5456,-2.5459,-2.5465,-2.5466,-2.5536,-2.5536,0,0,0,-2.5354,-2.5356,-2.5366,-2.5385,-2.5392,-2.5385,-2.5389,-2.5436,-2.5439,-2.5457,-2.546,-2.5466,-2.5466,-2.5536,-2.5536,-2.555,0,0,0,-2.5352,-2.5352,-2.5365,-2.5364,-2.5391,-2.5414,-2.5392,-2.5436,-2.5441,-2.546,-2.5466,-2.5467,-2.5535,-2.5536,-2.5549,-2.5557,0,0,0,-2.5347,-2.5352,-2.5358,-2.5363,-2.5381,-2.5413,-2.5419,-2.5437,-2.5443,-2.5465,-2.5467,-2.5535,-2.5536,-2.5548,-2.5555,-2.5575,0,0,0,-2.534,-2.537,-2.5358,-2.5392,-2.5381,-2.5422,-2.5419,-2.545,-2.5471,-2.5466,-2.5535,-2.5536,-2.5548,-2.5554,-2.5574,-2.559,-2.5597,0,0,-2.5376,-2.5374,-2.5394,-2.5385,-2.5428,-2.5416,-2.5462,-2.5483,-2.5487,-2.552,-2.5522,-2.555,-2.5555,-2.5575,-2.5639,-2.5644,0,0,0,-2.5405,-2.5419,-2.5431,-2.5451,-2.5468,-2.5484,-2.5499,-2.5507,-2.5535,-2.5503,-2.5563,-2.5566,-2.5578,-2.5586,-2.559,-2.56,-2.554,-2.554,-2.554,-2.5449,-2.5455,-2.5489,-2.55,-2.5519,-2.5535,-2.5552,-2.5566,-2.5564,-2.5579,-2.5587,-2.5626,-2.5635,-2.5638,-2.5649,-2.5598,-2.5598,-2.5598,-2.5598,-2.5501,-2.5522,-2.5522,-2.5555,-2.5561,-2.5589,-2.5607,-2.5605,-2.5632,-2.5619,-2.5629,-2.5612,-2.5644,-2.5654,-2.5599,-2.5599,-2.5599,-2.5599,-2.5599,-2.553,-2.5541,-2.5551,-2.5582,-2.5605,-2.5616,-2.5642,-2.5647,-2.5651,-2.5662,-2.5672,-2.5672,-2.5672,-2.5667,-2.5667,-2.5667,-2.5667,-2.5667,-2.5667,-2.5555,-2.5567,-2.5588,-2.5611,-2.5625,-2.5645,-2.5663,-2.5678,-2.5695,-2.5696,-2.5696,-2.5694,-2.5647,-2.5634,-2.5669,-2.5669,-2.5669,-2.5669,-2.5668,-2.5603,-2.5594,-2.5627,-2.5641,-2.567,-2.5693,-2.5699,-2.5729,-2.5742,-2.5755,-2.5752,-2.5716,-2.5714,-2.5711,-2.57,-2.575,-2.575,-2.575,-2.575,-2.5627,-2.5627,-2.5663,-2.5686,-2.5709,-2.5719,-2.5758,-2.5774,-2.5788,-2.5797,-2.5791,-2.5778,-2.5774,-2.5775,-2.577,-2.576,-2.5824,-2.5824,-2.5824,-2.5656,-2.5659,-2.5691,-2.5705,-2.5728,-2.5748,-2.5785,-2.5812,-2.5827,-2.5827,-2.5804,-2.5801,-2.578,-2.5773,-2.577,-2.5762,-2.5744,0,0]},{"header":{"parameterUnit":"m.s-1","parameterCategory":1,"la1":30.2992,"la2":30.254,"lo1":-89.0895,"lo2":-89.0443,"dy":0.0025,"dx":0.0025,"nx":19,"ny":19,"refTime":"2026-04-01T03:00:00:Z","depth":0,"parameterNumber":3,"parameterNumberName":"V-component_of_WINDS"},"data":[0,0,0,2.9356,2.9356,2.9371,2.9372,2.9386,2.9387,0,0,0,0,0,0,0,0,0,0,0,2.9349,2.9349,2.9356,2.9356,2.9371,2.9372,2.9386,2.9387,0,0,0,0,0,0,0,0,0,0,0,2.9349,2.9349,2.9349,2.9356,2.9371,2.9372,2.9386,2.9376,0,0,0,0,0,0,0,0,0,0,2.9362,2.9353,2.9349,2.9349,2.9356,2.9371,2.9372,2.9376,2.9377,2.9378,0,2.9378,0,2.9383,2.9387,2.9387,0,0,0,2.9358,2.9352,2.9359,2.9349,2.9356,2.9371,2.9365,2.9377,2.9378,2.9379,2.9379,2.9379,2.9383,2.9387,2.9387,2.9391,2.9391,0,0,2.9357,2.935,2.9358,2.936,2.9358,2.9364,2.9365,2.9377,2.9376,2.9379,2.938,2.9383,2.9387,2.9388,2.9391,2.9391,0,0,0,2.9353,2.9349,2.9356,2.9359,2.9362,2.9365,2.9366,2.9375,2.9378,2.938,2.9384,2.9388,2.9388,2.9391,2.9391,2.9383,0,0,0,2.9353,2.9347,2.9355,2.9351,2.9362,2.9369,2.9363,2.9377,2.9379,2.9383,2.9388,2.9388,2.9391,2.9391,2.9384,2.938,0,0,0,2.9349,2.9347,2.9348,2.9351,2.9357,2.9369,2.9372,2.9378,2.9381,2.9387,2.9388,2.9391,2.9391,2.9384,2.9381,2.9381,0,0,0,2.9342,2.9339,2.9348,2.9347,2.9357,2.9364,2.9372,2.9378,2.9382,2.9388,2.9391,2.9391,2.9384,2.9381,2.9381,2.9379,2.9378,0,0,2.9334,2.9337,2.9337,2.9346,2.935,2.9363,2.9366,2.9375,2.9381,2.9387,2.9388,2.9384,2.9381,2.9381,2.9373,2.9372,0,0,0,2.9332,2.9332,2.9335,2.934,2.9349,2.9357,2.9368,2.9372,2.9379,2.9383,2.9384,2.9382,2.9382,2.9382,2.9381,2.9382,2.9391,2.9391,2.9391,2.931,2.9321,2.9322,2.9335,2.934,2.9354,2.9359,2.9367,2.9373,2.9374,2.9376,2.937,2.9369,2.9369,2.937,2.9376,2.9376,2.9376,2.9376,2.93,2.9302,2.9315,2.9321,2.9333,2.9338,2.9352,2.9357,2.9364,2.9369,2.9369,2.9373,2.9367,2.9369,2.9375,2.9375,2.9375,2.9375,2.9375,2.9286,2.9289,2.9296,2.9308,2.9316,2.933,2.9337,2.9347,2.9356,2.9357,2.9361,2.9361,2.9363,2.9358,2.9358,2.9358,2.9358,2.9358,2.9358,2.9269,2.9278,2.9283,2.9296,2.9302,2.9312,2.9329,2.9336,2.9346,2.9352,2.9352,2.9361,2.9365,2.9366,2.9358,2.9358,2.9358,2.9358,2.9358,2.9254,2.926,2.9268,2.9275,2.9293,2.9302,2.9316,2.933,2.9337,2.9341,2.9351,2.9352,2.9355,2.9356,2.9357,2.9347,2.9347,2.9347,2.9347,2.9242,2.9247,2.9259,2.9271,2.9283,2.9298,2.9309,2.9323,2.9338,2.9344,2.9347,2.9349,2.935,2.9353,2.9354,2.9355,2.9345,2.9345,2.9345,2.9235,2.9241,2.9248,2.9264,2.928,2.9294,2.9305,2.9319,2.9337,2.9345,2.9349,2.9349,2.9353,2.9353,2.9359,2.9361,2.9363,0,0]}]]